Lakenheath RAF, United Kingdom

5:42 AM GMT on February 21, 2018 (GMT +0000)
Lakenheath Air Base

Weather History for EGUL - October, 2012

Change the Weather History Date:

Friday, October 26, 2012

  Actual Average Record
Temperature  
Mean Temperature 42 °F -  
Max Temperature 48 °F - - ()
Min Temperature 37 °F - - ()
Degree Days  
Heating Degree Days 22    
Moisture  
Dew Point 37 °F    
Average Humidity 84    
Maximum Humidity 93    
Minimum Humidity 66    
Precipitation  
Precipitation 0.00 in - - ()
Sea Level Pressure  
Sea Level Pressure 29.92 in    
Wind  
Wind Speed 13 mph ()    
Max Wind Speed 21 mph    
Max Gust Speed 28 mph    
Visibility 6.2 miles    
Events Rain    
T = Trace of Precipitation, MM = Missing Value Source: Averaged Metar Reports

Daily Weather History Graph

Daily Weather History Graph

Search for Another Location

Airport or City:

Trip Planner

Search our weather history database for the weather conditions in past years. The results will help you decide how hot, cold, wet, or windy it might be!

Date:

Astronomy

Oct. 26, 2012 Rise Set
Actual Time 7:43 AM BST 5:39 PM BST
Civil Twilight 7:07 AM BST 6:14 PM BST
Nautical Twilight 6:28 AM BST 6:54 PM BST
Astronomical Twilight 5:48 AM BST 7:33 PM BST
Moon 4:04 PM BST (10/26) 4:03 AM BST (10/26)
Length of Visible Light 11h 06m
Length of Day
9h 55m
Waxing Gibbous, 89% of the Moon is Illuminated
Oct 26
Waxing Gibbous
Oct 29
Full
Nov 7
Last Quarter
Nov 13
New
Nov 20
First Quarter

Hourly Weather History & Observations

Time (BST) Temp. Windchill Dew Point Humidity Pressure Visibility Wind Dir Wind Speed Gust Speed Precip Events Conditions
12:58 AM 47.7 °F - 41.5 °F 79% 30.05 in 6.2 mi NE 12.7 mph - N/A   Overcast
1:04 AM 48.2 °F - 42.8 °F 82% 30.04 in 6.2 mi NE 12.7 mph - N/A   Overcast
1:26 AM 48.2 °F - 42.8 °F 82% 30.03 in 6.2 mi NE 13.8 mph - N/A   Mostly Cloudy
1:29 AM 48.2 °F - 42.8 °F 82% 30.03 in 6.2 mi NE 13.8 mph - N/A   Mostly Cloudy
1:35 AM 48.2 °F - 42.8 °F 82% 30.03 in 6.2 mi NE 18.4 mph - N/A   Light Drizzle
1:42 AM 46.4 °F 39.0 °F 42.8 °F 87% 30.03 in 6.2 mi NE 19.6 mph - N/A Rain Light Rain
1:45 AM 46.4 °F 39.0 °F 42.8 °F 87% 30.03 in 6.2 mi NE 19.6 mph - N/A   Mostly Cloudy
1:47 AM 46.4 °F 39.5 °F 42.8 °F 87% 30.03 in 6.2 mi NE 17.3 mph - N/A   Overcast
1:58 AM 46.4 °F 39.8 °F 43.3 °F 89% 30.04 in 6.2 mi NE 16.1 mph - 0.00 in   Overcast
2:17 AM 46.4 °F 40.7 °F 42.8 °F 87% 30.02 in 6.2 mi NE 12.7 mph - N/A   Overcast
2:38 AM 46.4 °F 41.1 °F 42.8 °F 87% 30.02 in 6.2 mi NE 11.5 mph - N/A   Overcast
2:58 AM 46.6 °F - 41.5 °F 83% 30.02 in 6.2 mi NE 10.4 mph - N/A   Overcast
4:58 AM 46.4 °F 41.5 °F 39.2 °F 76% 30.01 in 6.2 mi NE 10.4 mph - N/A   Overcast
5:58 AM 45.0 °F 40.1 °F 39.2 °F 80% 29.99 in 6.2 mi NE 9.2 mph - N/A   Overcast
6:58 AM 44.6 °F 39.7 °F 38.5 °F 79% 29.98 in 6.2 mi NNE 9.2 mph - N/A   Overcast
7:58 AM 44.4 °F 38.2 °F 37.0 °F 75% 29.98 in 6.2 mi NE 12.7 mph - N/A   Overcast
8:36 AM 44.6 °F 38.8 °F 35.6 °F 71% 29.96 in 6.2 mi NE 11.5 mph - N/A   Light Drizzle
8:43 AM 44.6 °F 38.8 °F 35.6 °F 71% 29.96 in 6.2 mi NE 11.5 mph - N/A   Overcast
8:58 AM 45.5 °F 39.9 °F 36.5 °F 71% 29.97 in 6.2 mi NE 11.5 mph - N/A   Mostly Cloudy
11:58 AM 47.3 °F - 37.8 °F 69% 29.94 in 6.2 mi NNE 11.5 mph - N/A   Overcast
12:58 PM 48.2 °F - 37.6 °F 67% 29.92 in 6.2 mi NE 15.0 mph - N/A   Mostly Cloudy
1:24 PM 48.2 °F - 37.4 °F 66% 29.90 in 6.2 mi NE 12.7 mph - N/A   Mostly Cloudy
1:33 PM 46.4 °F 39.2 °F 37.4 °F 71% 29.90 in 6.2 mi NNE 18.4 mph - N/A   Mostly Cloudy
1:58 PM 46.9 °F - 36.9 °F 68% 29.91 in 6.2 mi NE 13.8 mph 20.7 mph N/A   Mostly Cloudy
2:49 PM 46.4 °F 40.1 °F 37.4 °F 71% 29.88 in 6.2 mi NNE 15.0 mph 19.6 mph N/A   Light Drizzle
2:58 PM 46.2 °F 39.8 °F 37.4 °F 71% 29.89 in 6.2 mi NNE 15.0 mph - 0.00 in Rain Light Rain
3:10 PM 44.6 °F 38.1 °F 37.4 °F 76% 29.88 in 6.2 mi NE 13.8 mph - N/A   Overcast
3:58 PM 45.7 °F 39.8 °F 35.1 °F 66% 29.88 in 6.2 mi NNE 12.7 mph - 0.00 in   Mostly Cloudy
7:58 PM 41.2 °F 36.0 °F 34.9 °F 78% 29.88 in 6.2 mi North 8.1 mph - N/A   Overcast
8:34 PM 39.2 °F 31.2 °F 35.6 °F 87% 29.87 in 6.2 mi NNW 13.8 mph - N/A   Light Drizzle
8:57 PM 39.2 °F 31.2 °F 35.6 °F 87% 29.87 in 6.2 mi North 13.8 mph - N/A   Scattered Clouds
8:58 PM 39.9 °F 32.1 °F 36.1 °F 86% 29.88 in 6.2 mi North 13.8 mph - 0.00 in   Scattered Clouds
9:25 PM 39.2 °F 30.2 °F 35.6 °F 87% 29.87 in 6.2 mi NNW 17.3 mph 21.9 mph N/A   Mostly Cloudy
9:29 PM 39.2 °F 29.8 °F 35.6 °F 87% 29.87 in 6.2 mi North 18.4 mph 27.6 mph N/A Rain Rain
9:30 PM 39.2 °F 29.8 °F 35.6 °F 87% 29.87 in 6.2 mi North 18.4 mph 27.6 mph N/A Rain Rain
9:31 PM 39.2 °F 29.8 °F 35.6 °F 87% 29.87 in 5.6 mi North 18.4 mph 27.6 mph N/A Rain Rain
9:38 PM 37.4 °F 28.2 °F 35.6 °F 93% 29.87 in 5.0 mi North 16.1 mph 27.6 mph N/A Rain Light Rain
9:39 PM 37.4 °F 28.2 °F 35.6 °F 93% 29.88 in 5.6 mi North 16.1 mph - N/A Rain Light Rain
9:40 PM 37.4 °F 28.9 °F 35.6 °F 93% 29.87 in 6.2 mi North 13.8 mph - N/A Rain Light Rain
9:41 PM 37.4 °F 28.5 °F 35.6 °F 93% 29.87 in 6.2 mi North 15.0 mph - N/A Rain Light Rain
9:42 PM 37.4 °F 28.2 °F 35.6 °F 93% 29.87 in 6.2 mi North 16.1 mph - N/A Rain Light Rain
9:45 PM 37.4 °F 28.2 °F 35.6 °F 93% 29.87 in 6.2 mi North 16.1 mph - N/A   Mostly Cloudy
9:46 PM 37.4 °F 28.2 °F 35.6 °F 93% 29.87 in 6.2 mi North 16.1 mph - N/A   Mostly Cloudy
9:47 PM 37.4 °F 28.2 °F 35.6 °F 93% 29.87 in 6.2 mi North 16.1 mph - N/A   Mostly Cloudy
9:58 PM 37.9 °F 28.9 °F 35.2 °F 90% 29.88 in 6.2 mi NNW 16.1 mph - 0.00 in   Overcast
9:59 PM 37.4 °F 28.2 °F 35.6 °F 93% 29.87 in 6.2 mi NNW 16.1 mph - N/A   Overcast
10:08 PM 37.4 °F 28.5 °F 35.6 °F 93% 29.87 in 6.2 mi NNW 15.0 mph 20.7 mph N/A   Overcast
10:12 PM 37.4 °F 27.5 °F 35.6 °F 93% 29.86 in 6.2 mi NNW 18.4 mph 27.6 mph N/A   Light Drizzle
10:31 PM 37.4 °F 29.3 °F 35.6 °F 93% 29.86 in 6.2 mi NNW 12.7 mph 24.2 mph N/A Rain Light Rain
10:40 PM 37.4 °F 28.2 °F 35.6 °F 93% 29.86 in 6.2 mi North 16.1 mph - N/A   Light Drizzle
10:41 PM 37.4 °F 28.9 °F 35.6 °F 93% 29.86 in 6.2 mi North 13.8 mph - N/A   Mostly Cloudy
10:58 PM 37.9 °F 27.6 °F 35.1 °F 89% 29.87 in 6.2 mi North 20.7 mph 26.5 mph 0.00 in   Mostly Cloudy
11:01 PM 37.4 °F 27.8 °F 35.6 °F 93% 29.86 in 6.2 mi North 17.3 mph 26.5 mph N/A Rain Light Rain
11:14 PM 37.4 °F 28.5 °F 35.6 °F 93% 29.86 in 6.2 mi North 15.0 mph 21.9 mph N/A Rain Light Rain
11:29 PM 37.4 °F 28.2 °F 33.8 °F 87% 29.86 in 6.2 mi North 16.1 mph 26.5 mph N/A   Scattered Clouds
11:32 PM 37.4 °F 28.9 °F 33.8 °F 87% 29.86 in 6.2 mi NNW 13.8 mph 26.5 mph N/A   Mostly Cloudy
11:58 PM 37.2 °F 27.6 °F 34.3 °F 89% 29.87 in 6.2 mi NNW 17.3 mph 26.5 mph 0.00 in   Overcast